User: anonymous   Login
Location: Theydon Bois
(51.6750°N, 0.1050°E)
Time: 18:16:04
(UTC+01:00)
Language:

SL-16 R/B - Orbit

View from above orbital plane
View from above orbital plane
View from above satellite
View from above satellite

Ground track
Ground track

The orbit data is extracted from the following two-line orbital elements,

1 31793U 07029B   18200.18596194  .00000240  00000-0  15039-3 0  9992
2 31793  70.9752 275.2472 0002421 265.0427 122.6759 14.14399222570853
Epoch (UTC): 19 July 2018 04:27:47
Eccentricity: 0.0002421
inclination: 70.9752°
perigee height: 842 km
apogee height: 846 km
right ascension of ascending node: 275.2472°
argument of perigee: 265.0427°
revolutions per day: 14.14399222
mean anomaly at epoch: 122.6759°
orbit number at epoch: 57085

The dashed part of the orbit path shows where the satellite is in the earth's shadow,  

DLR